Date,TemperatureHighF,TemperatureAvgF,TemperatureLowF,DewpointHighF,DewpointAvgF,DewpointLowF,HumidityHigh,HumidityAvg,HumidityLow,PressureMaxIn,PressureMinIn,WindSpeedMaxMPH,WindSpeedAvgMPH,GustSpeedMaxMPH,PrecipitationSumIn
2013-3-1,65,54,46,49,43,38,95,67,45,30.04,29.94,6,3,16,0.00
2013-3-2,60,50,38,43,38,35,93,64,45,30.09,30.00,12,4,28,0.00
2013-3-3,57,45,35,40,34,30,93,68,48,30.19,30.02,10,4,23,0.00
2013-3-4,68,49,32,41,33,27,95,62,25,30.27,30.14,6,1,13,0.00
2013-3-5,78,59,40,57,48,36,94,71,39,30.20,30.06,8,3,16,0.00
2013-3-6,69,58,43,62,45,33,95,66,28,30.16,29.97,13,6,27,0.01
2013-3-7,70,53,41,43,37,33,86,57,32,30.25,30.14,7,3,16,0.01
2013-3-8,79,57,38,47,40,34,96,62,21,30.26,30.13,5,1,11,0.00
2013-3-9,76,61,45,52,49,44,97,69,37,30.25,30.15,6,2,13,0.00
2013-3-10,81,66,54,57,55,52,95,70,42,30.20,30.07,11,4,21,0.00
2013-3-11,81,71,59,62,59,55,94,67,50,30.13,29.93,11,3,19,0.00
2013-3-12,69,64,55,68,61,52,97,89,79,30.05,29.89,6,3,18,0.44
2013-3-13,77,61,51,52,44,37,94,59,24,30.19,30.05,8,4,19,0.01
2013-3-14,71,56,44,47,36,29,88,50,22,30.29,30.18,7,3,18,0.00
2013-3-15,74,54,37,45,40,33,96,64,28,30.32,30.17,7,2,12,0.00
2013-3-16,80,59,41,53,46,40,97,67,29,30.22,30.07,7,2,14,0.00
2013-3-17,79,63,47,59,54,46,97,76,48,30.17,30.02,5,1,15,0.01
2013-3-18,77,68,59,67,62,57,93,83,66,30.07,29.92,5,2,15,0.01
2013-3-19,87,72,61,68,63,60,98,78,45,30.03,29.91,6,2,12,0.00
2013-3-20,75,67,58,67,62,56,95,84,61,29.98,29.82,8,3,20,0.02
2013-3-21,74,60,46,58,42,28,96,58,24,30.01,29.89,6,3,15,0.02
2013-3-22,80,59,40,67,51,38,97,78,42,30.04,29.91,8,2,13,1.18
2013-3-23,86,72,62,74,67,61,99,86,59,30.01,29.80,9,3,23,1.25
2013-3-24,81,74,70,73,70,68,96,89,75,29.87,29.66,11,5,25,0.01
2013-3-25,73,64,50,68,48,33,95,63,24,30.06,29.76,8,5,23,0.00
2013-3-26,60,52,45,45,35,28,82,54,35,30.27,30.06,13,5,29,0.00
2013-3-27,65,50,38,39,34,29,81,57,30,30.34,30.23,7,3,16,0.00
2013-3-28,73,54,38,41,37,32,94,59,23,30.33,30.20,5,2,13,0.00
2013-3-29,76,58,42,50,41,36,95,60,25,30.36,30.22,10,2,15,0.00
2013-3-30,81,62,46,56,49,44,97,67,36,30.28,30.14,5,2,15,0.00
2013-3-31,84,67,53,60,54,-100,94,68,35,30.20,30.03,5,2,12,0.00